DLH030 EGGW-EHAM

Flight info

Callsign DLH030
Flight time 0h 33m
Altitude 26000
Route EGGW/07 MATC2C MATCH Q295 BRAIN M197 REDFA DCT EHAM/R09
Aircraft B736/M-SDE2E3FGHIRWXY/LB1

Departure

Time 2026-05-05 22:01
Airport London Luton Airport (EGGW)

Arrival

Time 2026-05-05 22:35
Airport Amsterdam Airport Schiphol (EHAM)
Time Latitude Longitude Altitude Speed Heading
2026-05-05 21:35 51.87723 -0.37801 535 ft 0 kts 206°
2026-05-05 21:36 51.87718 -0.37862 536 ft 0 kts 182°
2026-05-05 21:56 51.87737 -0.37861 535 ft 4 kts 182°
2026-05-05 21:57 51.87761 -0.37859 535 ft 4 kts 183°
2026-05-05 21:57 51.87782 -0.37858 535 ft 1 kts 183°
2026-05-05 21:59 51.87768 -0.37804 535 ft 13 kts 106°
2026-05-05 21:59 51.87733 -0.37651 535 ft 15 kts 118°
2026-05-05 21:59 51.87679 -0.37512 535 ft 14 kts 131°
2026-05-05 22:00 51.87593 -0.37451 535 ft 14 kts 185°
2026-05-05 22:00 51.87498 -0.37515 535 ft 17 kts 230°
2026-05-05 22:00 51.87424 -0.37661 535 ft 16 kts 231°
2026-05-05 22:00 51.87338 -0.37670 535 ft 14 kts 129°
2026-05-05 22:01 51.87379 -0.37355 535 ft 74 kts 74°
2026-05-05 22:01 51.87605 -0.35997 659 ft 165 kts 73°
2026-05-05 22:01 51.87922 -0.33975 1559 ft 204 kts 73°
2026-05-05 22:01 51.88321 -0.31672 2609 ft 215 kts 73°
2026-05-05 22:02 51.88734 -0.29347 3634 ft 216 kts 73°
2026-05-05 22:02 51.89141 -0.27032 4629 ft 218 kts 72°
2026-05-05 22:02 51.89539 -0.24623 5642 ft 226 kts 77°
2026-05-05 22:02 51.89315 -0.22046 6657 ft 238 kts 115°
2026-05-05 22:03 51.88160 -0.20121 7665 ft 245 kts 149°
2026-05-05 22:03 51.86613 -0.18934 8698 ft 249 kts 156°
2026-05-05 22:03 51.85002 -0.17800 9491 ft 263 kts 156°
2026-05-05 22:03 51.83257 -0.16586 10306 ft 275 kts 156°
2026-05-05 22:04 51.81487 -0.15338 11095 ft 287 kts 156°
2026-05-05 22:04 51.79626 -0.14012 11882 ft 298 kts 156°
2026-05-05 22:04 51.77706 -0.12571 12668 ft 310 kts 149°
2026-05-05 22:04 51.76129 -0.10164 13451 ft 320 kts 122°
2026-05-05 22:05 51.75379 -0.06760 14227 ft 327 kts 95°
2026-05-05 22:05 51.75511 -0.03069 15001 ft 333 kts 81°
2026-05-05 22:05 51.75862 0.00675 15707 ft 340 kts 80°
2026-05-05 22:05 51.76217 0.04493 16487 ft 347 kts 81°
2026-05-05 22:06 51.76559 0.08385 17281 ft 354 kts 82°
2026-05-05 22:06 51.76889 0.12358 18096 ft 359 kts 82°
2026-05-05 22:06 51.77214 0.16384 18832 ft 365 kts 82°
2026-05-05 22:06 51.77541 0.20482 19559 ft 369 kts 82°
2026-05-05 22:07 51.77871 0.24623 20300 ft 374 kts 82°
2026-05-05 22:07 51.78206 0.28800 21068 ft 377 kts 82°
2026-05-05 22:07 51.78548 0.33026 21846 ft 380 kts 82°
2026-05-05 22:07 51.78890 0.37276 22646 ft 383 kts 82°
2026-05-05 22:08 51.79234 0.41559 23470 ft 385 kts 82°
2026-05-05 22:08 51.79574 0.45814 24137 ft 389 kts 82°
2026-05-05 22:08 51.79920 0.50177 24736 ft 394 kts 83°
2026-05-05 22:08 51.80269 0.54580 25350 ft 398 kts 83°
2026-05-05 22:09 51.80620 0.59048 25915 ft 404 kts 83°
2026-05-05 22:09 51.80980 0.63653 25968 ft 423 kts 83°
2026-05-05 22:09 51.81488 0.68435 25987 ft 441 kts 77°
2026-05-05 22:09 51.82258 0.73318 25995 ft 457 kts 75°
2026-05-05 22:10 51.83094 0.78367 25998 ft 471 kts 76°
2026-05-05 22:10 51.83930 0.83547 25998 ft 483 kts 75°
2026-05-05 22:10 51.84852 0.88842 25996 ft 493 kts 74°
2026-05-05 22:10 51.85837 0.94192 25995 ft 500 kts 73°
2026-05-05 22:11 51.86847 0.99595 25977 ft 501 kts 73°
2026-05-05 22:11 51.87848 1.04977 25966 ft 497 kts 73°
2026-05-05 22:11 51.88831 1.10325 25975 ft 496 kts 74°
2026-05-05 22:11 51.89805 1.15691 25983 ft 496 kts 74°
2026-05-05 22:12 51.90770 1.21059 25981 ft 497 kts 74°
2026-05-05 22:12 51.91733 1.26449 25980 ft 497 kts 74°
2026-05-05 22:12 51.92678 1.31756 25978 ft 497 kts 74°
2026-05-05 22:12 51.93632 1.37133 25978 ft 496 kts 74°
2026-05-05 22:13 51.94583 1.42502 25978 ft 496 kts 74°
2026-05-05 22:13 51.95535 1.47883 25975 ft 496 kts 75°
2026-05-05 22:13 51.96484 1.53272 25977 ft 497 kts 75°
2026-05-05 22:13 51.97430 1.58654 25971 ft 495 kts 75°
2026-05-05 22:14 51.98373 1.64028 25969 ft 496 kts 75°
2026-05-05 22:14 51.99313 1.69424 25976 ft 496 kts 75°
2026-05-05 22:14 52.00200 1.74828 25973 ft 496 kts 76°
2026-05-05 22:14 52.01048 1.80270 25971 ft 495 kts 77°
2026-05-05 22:15 52.01879 1.85702 25970 ft 496 kts 77°
2026-05-05 22:15 52.02708 1.91143 25972 ft 496 kts 77°
2026-05-05 22:15 52.03541 1.96586 25962 ft 497 kts 77°
2026-05-05 22:15 52.04380 2.02034 25967 ft 497 kts 77°
2026-05-05 22:16 52.05218 2.07480 25965 ft 497 kts 77°
2026-05-05 22:16 52.06055 2.12928 25963 ft 496 kts 77°
2026-05-05 22:16 52.06891 2.18379 25964 ft 497 kts 77°
2026-05-05 22:16 52.07723 2.23825 25966 ft 497 kts 76°
2026-05-05 22:17 52.08553 2.29285 25965 ft 498 kts 77°
2026-05-05 22:17 52.09380 2.34738 25961 ft 496 kts 76°
2026-05-05 22:17 52.10206 2.40193 25961 ft 498 kts 77°
2026-05-05 22:17 52.11020 2.45588 25956 ft 497 kts 77°
2026-05-05 22:18 52.11800 2.51056 25953 ft 496 kts 81°
2026-05-05 22:18 52.12442 2.56571 25953 ft 495 kts 81°
2026-05-05 22:18 52.13008 2.62095 25955 ft 495 kts 83°
2026-05-05 22:18 52.13547 2.67621 25955 ft 494 kts 82°
2026-05-05 22:19 52.14079 2.73147 25956 ft 494 kts 83°
2026-05-05 22:19 52.14617 2.78672 25950 ft 494 kts 83°
2026-05-05 22:19 52.15169 2.84206 25947 ft 495 kts 82°
2026-05-05 22:19 52.15724 2.89733 25957 ft 494 kts 82°
2026-05-05 22:20 52.16283 2.95258 25943 ft 495 kts 82°
2026-05-05 22:20 52.16844 3.00804 25945 ft 495 kts 83°
2026-05-05 22:20 52.17399 3.06330 25947 ft 495 kts 83°
2026-05-05 22:20 52.17954 3.11864 25956 ft 495 kts 83°
2026-05-05 22:21 52.18506 3.17409 25958 ft 496 kts 83°
2026-05-05 22:21 52.19047 3.22896 25963 ft 496 kts 83°
2026-05-05 22:21 52.19592 3.28441 25958 ft 496 kts 83°
2026-05-05 22:21 52.20138 3.34004 25962 ft 495 kts 83°
2026-05-05 22:22 52.20677 3.39548 25952 ft 495 kts 83°
2026-05-05 22:22 52.21214 3.45100 25946 ft 495 kts 83°
2026-05-05 22:22 52.21747 3.50644 25949 ft 495 kts 84°
2026-05-05 22:22 52.22279 3.56191 25940 ft 495 kts 83°
2026-05-05 22:23 52.22631 3.59869 25942 ft 495 kts 83°
2026-05-05 22:23 52.23157 3.65420 25938 ft 495 kts 83°
2026-05-05 22:23 52.23684 3.70987 25945 ft 496 kts 83°
2026-05-05 22:23 52.24209 3.76554 25935 ft 497 kts 83°
2026-05-05 22:24 52.24901 3.83934 25933 ft 497 kts 83°
2026-05-05 22:24 52.25420 3.89523 25624 ft 500 kts 83°
2026-05-05 22:24 52.25767 3.93272 25096 ft 492 kts 83°
2026-05-05 22:24 52.26273 3.98737 24369 ft 478 kts 83°
2026-05-05 22:25 52.26758 4.04025 23662 ft 460 kts 83°
2026-05-05 22:25 52.27220 4.09071 22856 ft 439 kts 83°
2026-05-05 22:25 52.27653 4.13833 22057 ft 421 kts 83°
2026-05-05 22:25 52.28071 4.18476 21268 ft 406 kts 83°
2026-05-05 22:26 52.28472 4.22960 20503 ft 393 kts 83°
2026-05-05 22:26 52.28861 4.27305 19758 ft 382 kts 82°
2026-05-05 22:26 52.29239 4.31558 19030 ft 373 kts 82°
2026-05-05 22:26 52.29601 4.35643 18319 ft 348 kts 82°
2026-05-05 22:27 52.29931 4.39363 17551 ft 315 kts 82°
2026-05-05 22:27 52.30225 4.42689 16786 ft 290 kts 82°
2026-05-05 22:27 52.30608 4.45797 16098 ft 267 kts 70°
2026-05-05 22:27 52.31512 4.48224 15763 ft 227 kts 45°
2026-05-05 22:28 52.32694 4.49560 15460 ft 196 kts 23°
2026-05-05 22:28 52.33930 4.50066 15024 ft 176 kts 359°
2026-05-05 22:28 52.35063 4.49495 14423 ft 173 kts 323°
2026-05-05 22:28 52.35717 4.47906 13776 ft 171 kts 281°
2026-05-05 22:29 52.35585 4.46032 13226 ft 164 kts 248°
2026-05-05 22:29 52.34876 4.44614 12827 ft 168 kts 214°
2026-05-05 22:29 52.33788 4.43956 12803 ft 167 kts 187°
2026-05-05 22:29 52.32613 4.44309 12501 ft 179 kts 153°
2026-05-05 22:30 52.31647 4.45640 11636 ft 184 kts 124°
2026-05-05 22:30 52.31181 4.47495 10952 ft 173 kts 101°
2026-05-05 22:30 52.31056 4.49443 10157 ft 173 kts 90°
2026-05-05 22:30 52.31057 4.51394 9349 ft 171 kts 86°
2026-05-05 22:31 52.31103 4.53330 8525 ft 167 kts 83°
2026-05-05 22:31 52.31157 4.55210 7687 ft 166 kts 83°
2026-05-05 22:31 52.31217 4.57063 6986 ft 160 kts 85°
2026-05-05 22:31 52.31231 4.58849 6306 ft 155 kts 88°
2026-05-05 22:32 52.31205 4.60563 5615 ft 151 kts 87°
2026-05-05 22:32 52.31233 4.62243 4864 ft 148 kts 79°
2026-05-05 22:32 52.31242 4.63924 4109 ft 147 kts 84°
2026-05-05 22:32 52.31272 4.65599 3275 ft 148 kts 81°
2026-05-05 22:33 52.31347 4.67283 2457 ft 146 kts 79°
2026-05-05 22:33 52.31446 4.68876 1771 ft 139 kts 79°
2026-05-05 22:33 52.31511 4.70408 1177 ft 131 kts 80°
2026-05-05 22:33 52.31545 4.71850 687 ft 122 kts 81°
2026-05-05 22:34 52.31615 4.73254 352 ft 126 kts 79°
2026-05-05 22:34 52.31667 4.74720 47 ft 129 kts 82°
2026-05-05 22:34 52.31707 4.76023 3 ft 99 kts 80°
2026-05-05 22:34 52.31750 4.76931 -5 ft 55 kts 88°
2026-05-05 22:35 52.31760 4.77352 -5 ft 33 kts 88°
2026-05-05 22:35 52.31768 4.77696 -4 ft 13 kts 102°
2026-05-05 22:35 52.31765 4.77702 -4 ft 2 kts 124°
2026-05-05 22:35 52.31706 4.77619 -3 ft 19 kts 235°
2026-05-05 22:36 52.31623 4.77420 -4 ft 22 kts 236°
2026-05-05 22:36 52.31533 4.77209 -4 ft 23 kts 201°
2026-05-05 22:36 52.31372 4.77187 -3 ft 23 kts 183°
2026-05-05 22:36 52.31270 4.77282 -3 ft 11 kts 188°
2026-05-05 22:37 52.31211 4.77271 -3 ft 0 kts 183°